Regional Weather Roundup
Issued by NWS

Home | Current Version | Previous Version | Text Only | Print | Product List | Glossary On
Versions: 1 2 3 4 5 6 7 8 9 10 11 12 13 14 15 16 17 18 19 20 21 22 23 24 25 26
000
ASUS44 KBMX 280910
RWRAL

ALABAMA REGIONAL WEATHER ROUNDUP
NATIONAL WEATHER SERVICE BIRMINGHAM AL
400 AM CDT FRI JUL 28 2017

NOTE: "FAIR" INDICATES FEW OR NO CLOUDS BELOW 12,000 FEET
WITH NO SIGNIFICANT WEATHER AND/OR OBSTRUCTIONS TO VISIBILITY.

THE REMARK "TC" DENOTES TEMPERATURE IN DEGREES CELSIUS.

ALZ001>011-014-016>018-020-281000-
NORTH ALABAMA

CITY           SKY/WX    TMP DP  RH WIND       PRES   REMARKS
MUSCLE SHOALS  LGT RAIN  75  72  90 S7        29.91F
HUNTSVILLE     CLOUDY    79  76  90 W5        29.90F
DECATUR        CLOUDY    78  76  93 W8        29.91S
HALEYVILLE     NOT AVBL
GADSDEN        CLOUDY    74  74 100 CALM      29.91F
$$

ALZ012-013-022-023-030>036-040>044-281000-
WEST CENTRAL ALABAMA

CITY           SKY/WX    TMP DP  RH WIND       PRES   REMARKS
TUSCALOOSA     MOCLDY    78  77  96 CALM      29.91F
DEMOPOLIS        N/A     74  74 100 CALM      29.92S
$$

ALZ015-024>026-033>036-041>044-281000-
CENTRAL ALABAMA

CITY           SKY/WX    TMP DP  RH WIND       PRES   REMARKS
BIRMINGHAM     CLOUDY    80  73  79 SW3       29.94F
MONTGOMERY     MOCLDY    76  70  82 S3        29.92S
SHELBY CO ARPT PTCLDY    77  74  90 CALM      29.93S
MAXWELL AFB    CLOUDY    73  73 100 CALM      29.92S
GREENVILLE     FAIR      76  70  82 CALM      29.93S
SELMA          FAIR      73  70  88 CALM      29.92S
PRATTVILLE     FAIR      72  72 100 CALM      29.92S
BESSEMER       FAIR      76  73  91 S5        29.94F
TALLADEGA      FAIR      76  75  97 MISG      29.93S
PELL CITY      SUNNY     75  75 100 CALM      29.91F
MARION         NOT AVBL
SYLACAUGA      CLOUDY    74  74 100 CALM      29.93S
$$

ALZ019-021-028-029-037-038-045>048-281000-
EAST CENTRAL ALABAMA

CITY           SKY/WX    TMP DP  RH WIND       PRES   REMARKS
ANNISTON       CLOUDY    76  74  93 CALM      29.92F
ALEXANDER CITY PTCLDY    72  72  98 CALM      29.94F
AUBURN         PTCLDY    75  72  90 W3        29.96S
$$

ALZ051>064-281000-
SOUTHWEST ALABAMA

CITY           SKY/WX    TMP DP  RH WIND       PRES   REMARKS
MOBILE         PTCLDY    75  73  93 CALM      29.95R
BROOKLEY FIELD CLEAR     77  77 100 W3        29.94F
EVERGREEN      MOCLDY    73  72  96 CALM      29.93F FOG
$$

ALZ049-050-065>069-281000-
SOUTHEAST ALABAMA

CITY           SKY/WX    TMP DP  RH WIND       PRES   REMARKS
DOTHAN         CLEAR     75  73  93 N5        29.96S
OZARK          CLEAR     73  71  94 CALM      29.93S
TROY           PTCLDY    72  72 100 CALM      29.94F
EUFAULA        FAIR      74  72  93 CALM      29.92F
$$




USA.gov is the U.S. government's official web portal to all federal, state and local government web resources and services.